sat.trackr.live / text

‹ back to catalog

STARLINK-1413

NORAD 45689 · 2020-035AJ

PAYLOAD ACTIVE UNKNOWN

§ Identity

Operator
Country
US
Launch date
2020-06-04
Launch site
AFETR
Launch vehicle
Mass (kg)
RCS (m²)

Purposes: comms

External: N2YO · Heavens-Above · Gunter

§ Orbital elements

Epoch: 2026-09-11T17:30:07.945632Z

Period
93.33 min
Inclination
53.1529°
Eccentricity
0.0002596
Mean motion
15.42850448 rev/d
Perigee alt
435.9 km
Apogee alt
439.5 km
Semi-major
6,815.8 km
B*
8.3680e-4
RAAN
258.4145°
Arg perigee
63.5500°
Mean anomaly
296.5772°
Rev number
34,747

§ Raw data

STARLINK-14131 45689U 20035AJ  26254.72925863  .00037034  00000+0  83680-3 0  99972 45689  53.1529 258.4145 0002596  63.5500 296.5772 15.42850448347473

JSON: /api/v1/satellites/45689 · /tle

For live sub-satellite position, see the globe view (requires WebGL).

§ Visibility from observer

Set your observer location to see the next 7 days of passes ≥ 10°. The values pass through the URL so the page stays shareable.

No JS? Fill the form by hand. The geolocation button needs JavaScript.